Regional Weather Roundup
Issued by NWS

Current Version | Previous Version | Text Only | Print | Product List | Glossary On
Versions: 1 2 3 4 5 6 7 8 9 10 11 12 13 14 15 16 17 18 19 20 21 22 23 24 25 26 27 28 29 30 31 32 33 34 35 36 37 38 39 40 41 42 43 44 45 46 47 48 49 50
000
ASUS46 KSEW 010620
RWRWA

WASHINGTON REGIONAL WEATHER ROUNDUP
NATIONAL WEATHER SERVICE SEATTLE WA
1000 PM PST SUN FEB 28 2021

NOTE:"FAIR" INDICATES FEW OR NO CLOUDS BELOW 12,000 FEET WITH NO
SIGNIFICANT WEATHER AND/OR OBSTRUCTIONS TO VISIBILITY.

WAZ507-509-555>559-010700-
SEATTLE, TACOMA, EVERETT, AND VICINITY

CITY           SKY/WX    TMP DP  RH WIND       PRES   REMARKS
EVERETT        MOCLDY    46  39  76 SE10      30.14F
6HR MIN TEMP:  46; 6HR MAX TEMP:  50;

BOEING FIELD   PTCLDY    44  40  85 SE7       30.16F
6HR MIN TEMP:  44; 6HR MAX TEMP:  52;

RENTON         PTCLDY    46  39  76 S5        30.16F
6HR MIN TEMP:  46; 6HR MAX TEMP:  53;

SEATAC AIRPORT MOCLDY    46  42  86 SE7       30.15F
6HR MIN TEMP:  45; 6HR MAX TEMP:  51;

JBLM-MCCHORD   CLOUDY    41  39  94 CALM      30.16F
6HR MIN TEMP:  40; 6HR MAX TEMP:  52;

PUYALLUP       CLOUDY    43  41  93 CALM      30.16F
BREMERTON      CLOUDY    45  42  89 S6        30.15S
6HR MIN TEMP:  45; 6HR MAX TEMP:  49;

JBLM-FT LEWIS  MOCLDY    39  39 100 SE3       30.15F
6HR MIN TEMP:  39; 6HR MAX TEMP:  51;

TACOMA NARROWS PTCLDY    41  40  96 CALM      30.16S
6HR MIN TEMP:  41; 6HR MAX TEMP:  49;

$$

WAZ001-503-506-510-514-515-010700-
NORTH INTERIOR

CITY           SKY/WX    TMP DP  RH WIND       PRES   REMARKS
BELLINGHAM     CLOUDY    50  40  68 S8        30.10F
6HR MIN TEMP:  44; 6HR MAX TEMP:  50;

FRIDAY HARBOR  CLOUDY    47  43  86 SE6       30.11F
6HR MIN TEMP:  46; 6HR MAX TEMP:  48;

EASTSOUND      CLOUDY    48  43  81 SE9       30.09S
PORT ANGELES   MOCLDY    37  35  92 S3        30.10F
6HR MIN TEMP:  37; 6HR MAX TEMP:  47;

EDIZ HOOK      FAIR      41  40  95 SW5       30.11S
6HR MIN TEMP:  41; 6HR MAX TEMP:  47;

PORT TOWNSEND  MOCLDY    48  41  76 SE7       30.08F
NAS WHIDBEY    MOCLDY    50  41  71 SE18G24   30.15F
6HR MIN TEMP:  49; 6HR MAX TEMP:  50;

ARLINGTON      CLOUDY    47  40  76 SW5       30.15F
6HR MIN TEMP:  46; 6HR MAX TEMP:  49; 6HR PCP:  0.01;

BURLINGTON     CLOUDY    48  41  76 E7        30.13F
$$

WAZ020-022-039-040-504-511-512-010700-
SOUTHWEST INTERIOR

CITY           SKY/WX    TMP DP  RH WIND       PRES   REMARKS
SHELTON        CLOUDY    44  42  93 S5        30.13F
6HR MIN TEMP:  44; 6HR MAX TEMP:  49;

OLYMPIA        PTCLDY    42  39  89 SE3       30.15F
6HR MIN TEMP:  40; 6HR MAX TEMP:  51;

CHEHALIS       FAIR      43  41  93 CALM      30.15F
KELSO          PTCLDY    41  39  93 CALM      30.18S
6HR MIN TEMP:  41; 6HR MAX TEMP:  54;

VANCOUVER      PTCLDY    47  37  68 SE6       30.17S
6HR MIN TEMP:  46; 6HR MAX TEMP:  58;

SCAPPOOSE, OR  PTCLDY    41  37  86 W3        30.17S
6HR MIN TEMP:  41; 6HR MAX TEMP:  57;

PORTLAND, OR   PTCLDY    45  38  76 E6        30.17F
6HR MIN TEMP:  45; 6HR MAX TEMP:  58;

$$

WAZ021-516-517-010700-
WASHINGTON COAST

CITY           SKY/WX    TMP DP  RH WIND       PRES   REMARKS
FORKS          LGT RAIN  44  43  96 S7        30.11R
6HR MIN TEMP:  44; 6HR MAX TEMP:  46; 6HR PCP:  0.06;

HOQUIAM        CLOUDY    46  43  89 SE8       30.14F
6HR MIN TEMP:  45; 6HR MAX TEMP:  47;

ASTORIA, OR    MOCLDY    42  40  92 SE6       30.15F
6HR MIN TEMP:  43; 6HR MAX TEMP:  49;

$$

WAZ019-023-024-040-567>569-010700-
CASCADE MOUNTAINS AND COLUMBIA GORGE

CITY           SKY/WX    TMP DP  RH WIND       PRES   REMARKS
STAMPEDE PASS  NOT AVBL
TROUTDALE, OR  PTCLDY    43  38  82 E3        30.18S
6HR MIN TEMP:  43; 6HR MAX TEMP:  59;

HOOD RIVER, OR PTCLDY    37  34  87 CALM      30.19F
THE DALLES, OR PTCLDY    39  33  79 E6        30.19S
6HR MIN TEMP:  38; 6HR MAX TEMP:  56;

$$

WAZ026-027-041>044-520-521-010700-
EAST SLOPES

CITY           SKY/WX    TMP DP  RH WIND       PRES   REMARKS
OMAK           PTCLDY    43  31  62 S9        30.15R
6HR MIN TEMP:  43; 6HR MAX TEMP:  50;

WENATCHEE      PTCLDY    44  33  65 NW3       30.13S
6HR MIN TEMP:  43; 6HR MAX TEMP:  55;

ELLENSBURG     PTCLDY    38  31  76 E6        30.14S
6HR MIN TEMP:  37; 6HR MAX TEMP:  52;

YAKIMA         PTCLDY    43  32  65 W5        30.14S
6HR MIN TEMP:  42; 6HR MAX TEMP:  60;

SUNNYSIDE ARPT CLEAR     40  33  75 E3        30.15
6HR MIN TEMP:  38; 6HR MAX TEMP:  59;

YAKIMA TC      FAIR      40  31  68 E6        30.12S
6HR MIN TEMP:  40; 6HR MAX TEMP:  56;

$$

WAZ028-034-035-010700-
COLUMBIA BASIN

CITY           SKY/WX    TMP DP  RH WIND       PRES   REMARKS
EPHRATA        PTCLDY    38  31  76 N8        30.16R
6HR MIN TEMP:  37; 6HR MAX TEMP:  56;

MOSES LAKE     CLEAR     43  33  68 SE13      30.15S
6HR MIN TEMP:  43; 6HR MAX TEMP:  59;

PASCO          CLEAR     43  34  70 SE6       30.18F
6HR MIN TEMP:  43; 6HR MAX TEMP:  59;

RICHLAND ARPT  CLEAR     43  35  73 E3        30.17F
6HR MIN TEMP:  41; 6HR MAX TEMP:  59;

HERMISTON, OR  CLEAR     36  30  79 SE7       30.18S
6HR MIN TEMP:  36; 6HR MAX TEMP:  59;

$$

WAZ036>038-010700-
NORTHEAST WASHINGTON

CITY           SKY/WX    TMP DP  RH WIND       PRES   REMARKS
SPOKANE GEIGER MOCLDY    36  27  69 SE10      30.20S
6HR MIN TEMP:  36; 6HR MAX TEMP:  41;

SPOKANE FELTS  PTCLDY    40  29  64 SE6       30.22S
6HR MIN TEMP:  40; 6HR MAX TEMP:  44;

FAIRCHILD AFB  PTCLDY    35  33  94 SE8       30.19F
6HR MIN TEMP:  34; 6HR MAX TEMP:  44;

COEURDALENE,ID CLOUDY    37  28  70 S6        30.23S
6HR MIN TEMP:  37; 6HR MAX TEMP:  38;

DEER PARK      CLOUDY    36  29  75 CALM      30.21F
6HR MIN TEMP:  36; 6HR MAX TEMP:  41;

$$

WAZ029>033-010700-
SOUTHEAST WASHINGTON

CITY           SKY/WX    TMP DP  RH WIND       PRES   REMARKS
PULLMAN        CLEAR     32  25  75 E14       30.24F WCI  22
6HR MIN TEMP:  32; 6HR MAX TEMP:  36;

LEWISTON, ID   CLEAR     38  27  64 SE12      30.27S
6HR MIN TEMP:  38; 6HR MAX TEMP:  48;

WALLA WALLA    CLEAR     46  29  51 SE12      30.16F
6HR MIN TEMP:  43; 6HR MAX TEMP:  53;

PENDLETON, OR  CLEAR     41  31  67 S8        30.17F
6HR MIN TEMP:  41; 6HR MAX TEMP:  55;

$$



USA.gov is the U.S. government's official web portal to all federal, state and local government web resources and services.